Regional Weather Roundup
Issued by NWS

Home | Current Version | Previous Version | Graphics & Text | Print | Product List | Glossary On
Versions: 1 2 3 4 5 6 7 8 9 10 11 12 13 14 15 16 17 18 19 20 21 22 23 24 25 26 27 28 29 30 31 32 33 34 35 36 37 38 39 40 41 42 43 44 45 46 47 48 49 50
000
ASUS43 KLOT 020100
RWRIL

ILLINOIS REGIONAL WEATHER ROUNDUP
NATIONAL WEATHER SERVICE CHICAGO/ROMEOVILLE IL
800 PM CDT WED JUL 01 2015

NOTE: "FAIR" INDICATES FEW OR NO CLOUDS BELOW 12,000 FEET WITH NO
SIGNIFICANT WEATHER AND/OR OBSTRUCTIONS TO VISIBILITY.

* THESE STATIONS ARE NOT UNDER NWS QUALITY CONTROL. THEY ALSO MAY NOT
  REPORT WEATHER SUCH AS PRECIPITATION OR FOG.

ILZ001-002-007-009-015-016-024-020200-
NORTHWEST ILLINOIS

CITY           SKY/WX    TMP DP  RH WIND       PRES   REMARKS
MOLINE         MOCLDY    70  55  59 NE6       29.94R
$$

ILZ003-004-008-010-011-017-018-020200-
NORTH CENTRAL ILLINOIS

CITY           SKY/WX    TMP DP  RH WIND       PRES   REMARKS
ROCKFORD       NOT AVBL
$$

ILZ005-006-012>014-019>023-020200-
NORTHEAST ILLINOIS

CITY           SKY/WX    TMP DP  RH WIND       PRES   REMARKS
CHICAGO-OHARE  CLOUDY    57  50  77 NE10      29.99R
CHICAGO-MIDWAY MOCLDY    60  51  72 NE13      29.99R
AURORA         CLOUDY    62  51  67 NE10      29.99R
WAUKEGAN       NOT AVBL
DUPAGE AIRPORT CLOUDY    59  50  72 NE10      29.98R
WHEELING       CLOUDY    56  50  80 NE7       30.01S
NORTHERLY ISL    N/A     56  51  84 NE10        N/A
$$

LMZ740>746-020200-
SOUTHERN LAKE MICHIGAN

STATION/POSITION SKY/WX   TEMP    WIND        PRES    VSBY  WAVE
                          AIR SEA DIR/SP/G                  HT/PER
                          (F)     (DEG/KT/KT) (MB)    (MI)  (FT/S)
HARRISON CRIB              56      30/  9/ 11   N/A
BURNHAM HARBOR             57      20/  6/ 11   N/A
CALUMET HARBOR             58      10/  9/ 11   N/A
BURNS HARBOR               60      30/ 12/ 14 1015.9R
MICHIGAN CITY              58      20/ 12/ 15   N/A
MICHIGAN CITY 6N           59 65   40/ 10/ 14   N/A           3/ 4
ST. JOSEPH                 58 63                N/A           3/ 4
$$

ILZ025>027-034>036-040-047-049-050-058-095>099-020200-
WEST-CENTRAL ILLINOIS

CITY           SKY/WX    TMP DP  RH WIND       PRES   REMARKS
$$

ILZ028>032-037-038-041>044-048-051>054-059>061-020200-
CENTRAL ILLINOIS

CITY           SKY/WX    TMP DP  RH WIND       PRES   REMARKS
PEORIA         NOT AVBL
SPRINGFIELD    CLOUDY    75  67  76 E9        29.89S
TAYLORVILLE    NOT AVBL
$$

ILZ033-039-045-046-055>057-062-063-020200-
EAST-CENTRAL ILLINOIS

CITY           SKY/WX    TMP DP  RH WIND       PRES   REMARKS
CHAMPAIGN      CLOUDY    72  66  81 E7        29.91S
MATTOON        CLOUDY    73  67  81 NE8       29.89R HAZE
$$

ILZ079-100>102-020200-
SOUTHWEST ILLINOIS

CITY           SKY/WX    TMP DP  RH WIND       PRES   REMARKS
CAHOKIA*       CLOUDY    76  72  87 NE6       29.87S THUNDER
$$

ILZ064>066-069>071-074>076-080>082-084>086-088>090-092>094-020200-
SOUTH-CENTRAL ILLINOIS

CITY           SKY/WX    TMP DP  RH WIND       PRES   REMARKS
CARBONDALE     LGT RAIN  78  71  79 SE6       29.88S HX  80
$$

ILZ067-068-072-073-078-083-087-091-020200-
SOUTHEAST ILLINOIS

CITY           SKY/WX    TMP DP  RH WIND       PRES   REMARKS
LAWRENCEVILLE  TSTM      74  72  93 N12       29.88S FOG
$$

ABBREVIATIONS USED IN REMARKS
   TC - TEMPERATURE IN CELSIUS
  WCI - WIND CHILL INDEX
   HX - HEAT INDEX
  VSB - VISIBILITY
$$



USA.gov is the U.S. government's official web portal to all federal, state and local government web resources and services.